Location: Zabreh
(49.8800°N, 16.8800°E)
Time: 10:19:58
(UTC+01:00)

ISS - Visible Passes

Search period start: 17 February 2019 00:00
Search period end: 27 February 2019 00:00
Orbit: 403 x 411 km, 51.6° (Epoch: 17 February)

Date Brightness Start Highest point End Pass type
(mag) Time Alt. Az. Time Alt. Az. Time Alt. Az.
24 Feb -1.1 05:43:50 10° S 05:46:05 17° SE 05:48:22 10° E visible
25 Feb -0.8 04:53:56 10° SSE 04:54:50 11° SE 04:55:42 10° ESE visible
26 Feb -2.3 05:36:21 10° SSW 05:39:19 32° SSE 05:42:18 10° E visible
